KK7N Weather Reports


time (UTC)temp
F
wind
direction
speed
knots
gust
knots
rain 1hr
in
rain 24hr
in
rain mn
in
humidity
%
barometer
mb
20260831114557 51 0 0.0 0.9 0.00 0.00 0.00 87 1012.7
20260831113128 51 192 0.9 2.6 0.00 0.00 0.00 86 1012.8
20260831111557 51 175 0.0 1.7 0.00 0.00 0.00 86 1013.0
20260831110058 51 0 0.0 0.9 0.00 0.00 0.00 86 1013.1
20260831104555 52 176 0.0 1.7 0.00 0.00 0.00 86 1013.1
20260831103053 52 0 0.9 2.6 0.00 0.00 0.00 86 1013.2
20260831101604 52 0 0.0 0.0 0.00 0.00 0.00 85 1013.1
20260831100057 53 0 0.0 0.9 0.00 0.00 0.00 85 1013.2
20260831094557 53 0 0.0 1.7 0.00 0.00 0.00 84 1013.5
20260831093112 53 0 0.0 3.5 0.00 0.00 0.00 83 1013.6
20260831091555 54 169 0.0 2.6 0.00 0.00 0.00 83 1013.7
20260831090059 54 0 0.0 0.9 0.00 0.00 0.00 82 1013.7
20260831084557 54 0 0.0 3.5 0.00 0.00 0.00 82 1013.9
20260831083056 55 0 0.0 0.9 0.00 0.00 0.00 81 1014.1
20260831081549 55 0 0.0 0.9 0.00 0.00 0.00 80 1014.1
20260831080050 56 0 0.0 1.7 0.00 0.00 0.00 79 1014.3
20260831074556 56 156 0.9 3.5 0.00 0.00 0.00 79 1014.4
20260831073050 56 0 0.0 1.7 0.00 0.00 0.00 79 1014.5
20260831071600 57 0 0.0 1.7 0.00 0.00 0.00 77 1014.5
20260831070059 57 0 0.0 3.5 0.00 0.00 0.00 77 1014.6
20260831064557 58 161 0.9 1.7 0.00 0.00 0.00 76 1014.9
20260831063105 58 0 0.0 1.7 0.00 0.00 0.00 75 1014.8
20260831061552 59 163 0.0 3.5 0.00 0.00 0.00 74 1015.0
20260831060054 59 0 0.0 0.9 0.00 0.00 0.00 74 1015.1
20260831054559 59 0 0.0 3.5 0.00 0.00 0.00 73 1015.2
20260831053100 60 0 0.0 0.0 0.00 0.00 0.00 72 1015.3
20260831051559 60 0 0.0 0.0 0.00 0.00 0.00 71 1015.6
20260831050110 61 0 0.0 1.7 0.00 0.00 0.00 70 1015.7
20260831044607 62 0 0.0 0.0 0.00 0.00 0.00 69 1015.7
20260831043053 63 0 0.0 0.0 0.00 0.00 0.00 67 1015.8
20260831041552 64 0 0.0 0.0 0.00 0.00 0.00 63 1015.9
20260831040053 65 325 0.0 5.2 0.00 0.00 0.00 62 1015.8
20260831034551 66 0 0.0 4.3 0.00 0.00 0.00 59 1015.8
20260831033100 67 311 0.0 5.2 0.00 0.00 0.00 57 1015.9
20260831031553 68 298 2.6 5.2 0.00 0.00 0.00 56 1015.8
20260831030050 68 333 0.0 4.3 0.00 0.00 0.00 55 1015.8
20260831024601 69 327 1.7 5.2 0.00 0.00 0.00 53 1015.7
20260831023056 70 298 2.6 7.0 0.00 0.00 0.00 52 1015.9
20260831021550 71 300 3.5 7.0 0.00 0.00 0.00 51 1015.9
20260831020104 71 307 2.6 7.8 0.00 0.00 0.00 50 1015.9
20260831014557 72 329 2.6 7.8 0.00 0.00 0.00 49 1016.1
20260831013103 72 338 2.6 9.6 0.00 0.00 0.00 48 1016.4
20260831011557 73 5 4.3 8.7 0.00 0.00 0.00 47 1016.4
20260831010055 73 238 2.6 8.7 0.00 0.00 0.00 47 1016.6
20260831004555 73 355 3.5 7.0 0.00 0.00 0.00 47 1016.6
20260831003054 74 299 2.6 8.7 0.00 0.00 0.00 44 1016.8
20260831001556 75 5 1.7 7.0 0.00 0.00 0.00 45 1016.8
20260831000059 75 267 2.6 8.7 0.00 0.00 0.00 43 1016.9
20260830234555 75 315 3.5 8.7 0.00 0.00 0.00 44 1017.0
20260830233053 74 264 2.6 7.8 0.00 0.00 0.00 43 1017.2
20260830231556 75 352 2.6 7.0 0.00 0.00 0.00 43 1017.3
20260830230054 74 28 5.2 9.6 0.00 0.00 0.00 43 1017.5
20260830224549 74 323 4.3 9.6 0.00 0.00 0.00 43 1017.8
20260830223110 72 308 0.9 7.8 0.00 0.00 0.00 45 1017.9
20260830221556 73 101 1.7 7.8 0.00 0.00 0.00 45 1018.3
20260830220105 74 273 2.6 8.7 0.00 0.00 0.00 45 1018.5
20260830214615 74 271 3.5 9.6 0.00 0.00 0.00 43 1018.7
20260830213048 72 291 4.3 10.4 0.00 0.00 0.00 45 1018.9
20260830211557 70 320 0.9 9.6 0.00 0.00 0.00 48 1019.0
20260830210117 72 206 2.6 8.7 0.00 0.00 0.00 45 1019.2
20260830204559 71 319 1.7 4.3 0.00 0.00 0.00 47 1019.4
20260830203051 72 317 1.7 7.8 0.00 0.00 0.00 48 1019.6
20260830201601 69 261 0.9 6.1 0.00 0.00 0.00 49 1019.8
20260830200055 68 344 2.6 8.7 0.00 0.00 0.00 54 1019.9
20260830194557 67 263 2.6 7.0 0.00 0.00 0.00 50 1020.0
20260830193102 67 337 2.6 7.8 0.00 0.00 0.00 54 1020.2
20260830191554 66 293 1.7 7.0 0.00 0.00 0.00 54 1020.3
20260830190124 66 273 2.6 7.0 0.00 0.00 0.00 56 1020.4
20260830184603 64 318 1.7 4.3 0.00 0.00 0.00 61 1020.6
20260830183059 64 340 0.9 3.5 0.00 0.00 0.00 61 1020.6
20260830181556 65 279 1.7 7.0 0.00 0.00 0.00 59 1020.6
20260830180110 63 109 0.0 4.3 0.00 0.00 0.00 62 1020.6
20260830174606 64 0 0.0 5.2 0.00 0.00 0.00 60 1020.6
20260830173057 66 271 1.7 4.3 0.00 0.00 0.00 63 1020.7
20260830171550 63 360 3.5 7.0 0.00 0.00 0.00 63 1020.7
20260830170100 62 84 0.9 3.5 0.00 0.00 0.00 69 1020.7
20260830164559 61 86 1.7 3.5 0.00 0.00 0.00 74 1020.6
20260830163101 59 0 0.9 2.6 0.00 0.00 0.00 79 1020.8
20260830161555 56 0 0.0 1.7 0.00 0.00 0.00 82 1021.0
20260830160055 55 0 0.0 0.0 0.00 0.00 0.00 84 1020.9
20260830154600 54 0 0.0 0.0 0.00 0.00 0.00 84 1021.0
20260830153100 54 0 0.0 0.0 0.00 0.00 0.00 86 1021.1
20260830151601 53 0 0.0 0.0 0.00 0.00 0.00 86 1021.3
20260830150101 52 0 0.0 0.0 0.00 0.00 0.00 86 1021.2
20260830144556 52 0 0.0 0.0 0.00 0.00 0.00 86 1021.3
20260830143058 51 0 0.0 0.0 0.00 0.00 0.00 86 1021.3
20260830141559 51 0 0.0 0.0 0.00 0.00 0.00 86 1021.3
20260830140052 51 0 0.0 0.0 0.00 0.00 0.00 85 1021.2
20260830134550 51 0 0.0 0.0 0.00 0.00 0.00 86 1021.0
20260830133100 51 0 0.0 0.0 0.00 0.00 0.00 86 1021.0
20260830131558 51 0 0.0 0.0 0.00 0.00 0.00 86 1021.0
20260830130057 51 0 0.0 0.0 0.00 0.00 0.00 86 1020.9
20260830124546 51 0 0.0 0.0 0.00 0.00 0.00 86 1020.8
20260830123102 50 0 0.0 0.0 0.00 0.00 0.00 86 1020.8
20260830121553 50 0 0.0 2.6 0.00 0.00 0.00 87 1020.8
20260830120104 50 0 0.0 0.0 0.00 0.00 0.00 86 1020.7